Location: Harbor View
(36.2448°N, 86.5797°W)
Time: 08:11:26
(UTC+00:00)

COSMO-SKYMED 1 - Pass Details

Date: 10 March 2021
Orbit: 621 x 623 km, 97.9° (Epoch: 13 April)

Event Time Altitude Azimuth Distance (km) Brightness Sun altitude
Rises 11:18:44 0° 176° (S) 2,888 6.0 -9.9°
Reaches altitude 10° 11:20:57 10° 180° (S) 1,986 5.1 -9.5°
Maximum altitude 11:25:12 57° 260° (W) 736 2.6 -8.6°
Drops below altitude 10° 11:29:29 10° 339° (NNW) 2,000 5.0 -7.8°
Sets 11:31:43 0° 343° (NNW) 2,910 5.8 -7.3°
